[[{"header":{"parameterUnit":"m.s-1","parameterCategory":2,"la1":30.2991,"la2":30.254,"lo1":-89.0895,"lo2":-89.0444,"dy":0.0017,"dx":0.0017,"nx":28,"ny":28,"refTime":"2025-06-17T09:00:00:Z","depth":"0","parameterNumber":2,"parameterNumberName":"U-component_of_CURRENTS"},"data":[0,0,0,0,0,0,0,0,0,0,0,0,0,0,0,0,0,0,0,0,0,0,0,0,0,0,0,0,0,0,0,0,0,0,0,0,0,0,0,0,0,0,0,0,0,0,0,0,0,0,0,0,0,0,0,0,0,0,0.2165,0.2164,0,0.2137,0.2138,0.2138,0.2092,0.2091,0.2089,0.2088,0.2079,0.208,0.2082,0,0,0,0,0,0,0,0,0,0,0,0,0,0.2161,0.2162,0.2165,0.2164,0.2163,0.2137,0.2138,0.2138,0.2093,0.2091,0.2089,0.2087,0.2079,0.208,0.2082,0,0,0,0,0,0,0,0,0,0,0,0,0,0.216,0.2162,0.2165,0.213,0.2126,0.2137,0.2138,0.2138,0.2093,0.2091,0.2088,0.2086,0.2078,0.208,0.2082,0.2145,0,0,0.2088,0.2089,0,0,0,0,0,0,0,0,0.216,0.2161,0.2136,0.2132,0.2128,0.2108,0.2132,0.2138,0.2094,0.2115,0.2088,0.2085,0.2086,0.2088,0.2101,0.2145,0.2144,0.2088,0.209,0.2091,0.2091,0,0,0,0,0,0,0,0.216,0.2162,0.2163,0.2135,0.213,0.2109,0.2107,0.2134,0.2123,0.2113,0.2108,0.2091,0.2085,0.2099,0.21,0.2144,0.2088,0.209,0.2091,0.2092,0.2209,0.2211,0,0,0,0,0,0,0.2149,0.2162,0.2164,0.2161,0.2127,0.211,0.2109,0.2124,0.2122,0.2116,0.2093,0.2089,0.2097,0.2098,0.21,0.214,0.2091,0.2092,0.2094,0.2208,0.221,0.2212,0,0,0,0,0,0,0.215,0.2151,0.2165,0.2151,0.215,0.2112,0.213,0.2125,0.2119,0.2104,0.2101,0.2089,0.2095,0.2097,0.2125,0.214,0.2093,0.2095,0.2205,0.2208,0.2211,0.2243,0,0,0,0,0,0,0.2151,0.2153,0.2163,0.2152,0.215,0.2153,0.2131,0.2126,0.2109,0.2103,0.2101,0.2098,0.2093,0.2123,0.2127,0.2142,0.2097,0.2203,0.2207,0.221,0.2239,0.2246,0.2252,0,0,0,0,0,0.2151,0.2169,0.2165,0.2164,0.2167,0.2152,0.215,0.212,0.2111,0.2108,0.2123,0.2097,0.2148,0.2127,0.2132,0.2147,0.2201,0.2206,0.221,0.2236,0.2245,0.2252,0,0,0,0,0,0,0.2167,0.2166,0.216,0.2177,0.2155,0.214,0.2131,0.2122,0.2135,0.2133,0.2129,0.2129,0.2159,0.216,0.2136,0.2194,0.2168,0.2174,0.2187,0.2195,0.2202,0.2181,0.2098,0,0,0,0,0,0.2179,0.2201,0.2178,0.2192,0.2177,0.2161,0.2152,0.2135,0.2137,0.2138,0.2146,0.2163,0.2189,0.2193,0.2216,0.2253,0.2261,0.2266,0.2273,0.2278,0.2268,0.2301,0.2308,0.2226,0.2226,0.2226,0,0,0.2185,0.219,0.2198,0.2197,0.2181,0.2161,0.2151,0.2135,0.2138,0.214,0.2165,0.2189,0.2207,0.2245,0.2258,0.224,0.2315,0.2284,0.2288,0.2274,0.2306,0.2313,0.232,0.2229,0.2228,0.2228,0,0,0.2189,0.2213,0.2212,0.2193,0.2165,0.2166,0.2158,0.2149,0.2161,0.2193,0.2201,0.2234,0.227,0.2288,0.2301,0.2361,0.2352,0.2369,0.2379,0.2412,0.2418,0.2423,0.2475,0.2485,0.2367,0.2367,0.2367,0,0.2189,0.2198,0.2206,0.218,0.2168,0.2165,0.2146,0.2163,0.2174,0.2202,0.2197,0.2279,0.2289,0.234,0.2356,0.2372,0.2395,0.2343,0.2418,0.2423,0.2428,0.248,0.249,0.2369,0.2369,0.2368,0.2368,0,0.2165,0.2171,0.2165,0.215,0.2144,0.2133,0.2137,0.216,0.2188,0.2212,0.2278,0.2316,0.2358,0.2375,0.238,0.243,0.2439,0.2425,0.239,0.2438,0.249,0.25,0.2372,0.2371,0.237,0.237,0,0,0.2164,0.2155,0.2148,0.2139,0.2132,0.2122,0.215,0.2181,0.2203,0.2251,0.23,0.236,0.2389,0.2407,0.2432,0.2456,0.2523,0.2452,0.2452,0.249,0.2615,0.2615,0.2626,0.2519,0.252,0.2521,0.2648,0,0.2139,0.211,0.212,0.21,0.2084,0.2105,0.2129,0.2161,0.2214,0.2266,0.2334,0.2387,0.2401,0.2429,0.2462,0.2506,0.2546,0.2491,0.2573,0.2576,0.2559,0.2636,0.2514,0.2615,0.2657,0.2659,0.266,0,0.2092,0.2093,0.2073,0.2089,0.2082,0.2078,0.2127,0.2144,0.2222,0.2268,0.234,0.2396,0.2472,0.2463,0.257,0.2536,0.2577,0.2605,0.2611,0.2598,0.2594,0.257,0.2631,0.256,0.2675,0.2674,0.2673,0,0.2069,0.2058,0.206,0.205,0.2062,0.2077,0.2092,0.2148,0.2179,0.2271,0.2312,0.2415,0.2474,0.2538,0.2625,0.2599,0.2733,0.2705,0.2752,0.2754,0.2657,0.2648,0.264,0.2771,0.2771,0.2771,0.277,0,0.2036,0.2026,0.2046,0.2033,0.2038,0.2051,0.2071,0.2105,0.2167,0.2208,0.2309,0.2376,0.2489,0.2591,0.2647,0.2751,0.2765,0.277,0.2787,0.2671,0.2662,0.2599,0.2575,0.2776,0.2775,0.2774,0.2773,0,0.1988,0.2002,0.1996,0.2019,0.2018,0.2015,0.2036,0.2052,0.2118,0.2177,0.2212,0.2364,0.2506,0.2628,0.2752,0.2784,0.2799,0.2899,0.2772,0.277,0.2722,0.2704,0.2616,0.2563,0.2966,0.2967,0.2968,0,0.1963,0.1954,0.1968,0.196,0.1967,0.1966,0.1963,0.2017,0.2042,0.2171,0.2203,0.2374,0.2488,0.27,0.2806,0.2937,0.2839,0.2875,0.279,0.2718,0.2712,0.2581,0.2532,0.2695,0.2693,0.2692,0.2691,0,0.1916,0.1923,0.1916,0.1901,0.1898,0.1897,0.1907,0.1922,0.1997,0.206,0.2174,0.2276,0.251,0.2613,0.2796,0.285,0.2724,0.2852,0.2794,0.2519,0.2356,0.2312,0.2634,0.2679,0.268,0.2681,0.2682,0.2682,0.1878,0.1861,0.185,0.1834,0.1824,0.1825,0.1808,0.1848,0.1885,0.1968,0.2103,0.2208,0.2383,0.2637,0.2686,0.269,0.2689,0.2609,0.2608,0.2492,0.2381,0.2697,0.2744,0.2746,0.2747,0.2748,0.2749,0,0.1812,0.1797,0.178,0.1758,0.1721,0.1747,0.1757,0.1745,0.177,0.1878,0.1971,0.211,0.2227,0.236,0.2473,0.2432,0.2313,0.2383,0.2149,0.2128,0.2427,0.2354,0.2295,0.2295,0.2296,0.2296,0.2296,0.2296,0.1777,0.1736,0.1731,0.1661,0.1637,0.1589,0.1586,0.1598,0.1648,0.171,0.177,0.1878,0.2073,0.2216,0.2225,0.2188,0.2041,0.1959,0.1997,0.2188,0.2207,0.2225,0.2148,0.2048,0.2048,0.1565,0.1562,0.1559]},{"header":{"parameterUnit":"m.s-1","parameterCategory":2,"la1":30.2991,"la2":30.254,"lo1":-89.0895,"lo2":-89.0444,"dy":0.0017,"dx":0.0017,"nx":28,"ny":28,"refTime":"2025-06-17T09:00:00:Z","depth":"0","parameterNumber":3,"parameterNumberName":"V-component_of_CURRENTS"},"data":[0,0,0,0,0,0,0,0,0,0,0,0,0,0,0,0,0,0,0,0,0,0,0,0,0,0,0,0,0,0,0,0,0,0,0,0,0,0,0,0,0,0,0,0,0,0,0,0,0,0,0,0,0,0,0,0,0,0,0.0461,0.0461,0,0.04,0.0399,0.0398,0.0355,0.0355,0.0355,0.0355,0.0332,0.0331,0.0331,0,0,0,0,0,0,0,0,0,0,0,0,0,0.0451,0.0452,0.0461,0.046,0.046,0.04,0.0399,0.0398,0.0355,0.0355,0.0355,0.0355,0.0332,0.0331,0.0331,0,0,0,0,0,0,0,0,0,0,0,0,0,0.0427,0.0452,0.0461,0.0433,0.043,0.04,0.0399,0.0398,0.0355,0.0355,0.0355,0.0355,0.0332,0.0331,0.0331,0.033,0,0,0.0328,0.0328,0,0,0,0,0,0,0,0,0.0429,0.0428,0.0438,0.0435,0.0432,0.0387,0.0387,0.0378,0.0356,0.0381,0.0355,0.0355,0.0355,0.0353,0.0338,0.0329,0.0328,0.0328,0.0328,0.0327,0.0327,0,0,0,0,0,0,0,0.0431,0.0429,0.0435,0.0437,0.0434,0.0393,0.039,0.0384,0.0369,0.0379,0.0376,0.0373,0.0354,0.0339,0.0337,0.0327,0.0328,0.0328,0.0327,0.0327,0.0315,0.0315,0,0,0,0,0,0,0.0448,0.0432,0.0437,0.0433,0.0432,0.0394,0.039,0.04,0.0368,0.0364,0.0374,0.0372,0.034,0.0338,0.0336,0.0337,0.0327,0.0327,0.0326,0.0315,0.0315,0.0315,0,0,0,0,0,0,0.0448,0.045,0.0439,0.0432,0.0428,0.0395,0.0405,0.0399,0.0382,0.0364,0.036,0.0365,0.034,0.0337,0.0335,0.0336,0.0326,0.0326,0.0314,0.0315,0.0315,0.0338,0,0,0,0,0,0,0.0448,0.045,0.0458,0.0434,0.0429,0.0428,0.0406,0.0398,0.0382,0.0379,0.0355,0.0352,0.0339,0.0337,0.0335,0.0335,0.0325,0.0314,0.0315,0.0315,0.0337,0.0339,0.034,0,0,0,0,0,0.0448,0.0457,0.0459,0.0459,0.0443,0.0429,0.0422,0.0396,0.0382,0.0379,0.0364,0.0353,0.0336,0.0336,0.0334,0.0334,0.0314,0.0314,0.0315,0.0336,0.0338,0.034,0,0,0,0,0,0,0.0457,0.0453,0.0455,0.0463,0.0453,0.0422,0.0411,0.0398,0.0381,0.0376,0.0358,0.0355,0.0352,0.0342,0.0342,0.0331,0.0322,0.0322,0.0339,0.0341,0.0343,0.0364,0.0325,0,0,0,0,0,0.0466,0.0474,0.0463,0.0473,0.0465,0.044,0.0429,0.0416,0.0399,0.0389,0.0377,0.0362,0.0351,0.0346,0.0337,0.0334,0.0323,0.0331,0.0333,0.0335,0.035,0.0323,0.0323,0.0316,0.0316,0.0316,0,0,0.0476,0.0473,0.0479,0.0476,0.046,0.0455,0.0432,0.0419,0.0421,0.0392,0.039,0.0371,0.0352,0.0347,0.0344,0.0338,0.0332,0.0335,0.0336,0.0351,0.0323,0.0324,0.0324,0.0316,0.0316,0.0316,0,0,0.0488,0.0493,0.0496,0.0487,0.0472,0.0463,0.0464,0.0441,0.0434,0.0434,0.0409,0.0398,0.0383,0.0368,0.0358,0.0366,0.0343,0.0355,0.038,0.0353,0.0353,0.0353,0.0344,0.0344,0.0354,0.0354,0.0354,0,0.0496,0.0507,0.0495,0.0489,0.0486,0.0471,0.0473,0.0465,0.0449,0.0451,0.0441,0.0416,0.0396,0.0387,0.0384,0.0371,0.0355,0.0372,0.0355,0.0355,0.0355,0.0346,0.0344,0.0355,0.0355,0.0355,0.0355,0,0.0507,0.0513,0.051,0.0509,0.0504,0.0503,0.0496,0.0497,0.0492,0.0487,0.0485,0.0458,0.0447,0.0428,0.0408,0.0395,0.0384,0.0361,0.0351,0.0357,0.0347,0.0345,0.0357,0.0356,0.0356,0.0356,0,0,0.0531,0.0523,0.0522,0.0528,0.0516,0.0518,0.0523,0.0531,0.0541,0.053,0.0544,0.0512,0.05,0.0489,0.0457,0.0428,0.0406,0.0394,0.0392,0.0388,0.0354,0.0352,0.035,0.037,0.037,0.037,0.0349,0,0.0544,0.0552,0.0542,0.0558,0.0559,0.055,0.0561,0.0564,0.0567,0.0579,0.0558,0.0559,0.0522,0.0515,0.0483,0.0431,0.0403,0.0415,0.0347,0.0346,0.0345,0.0348,0.0364,0.0347,0.0347,0.0347,0.0347,0,0.0547,0.056,0.0573,0.0589,0.0589,0.0599,0.0619,0.0626,0.0633,0.0635,0.0632,0.0618,0.0599,0.0557,0.0488,0.0494,0.0431,0.0384,0.0381,0.0374,0.0341,0.0339,0.0344,0.0258,0.0344,0.0344,0.0344,0,0.0564,0.0578,0.0599,0.0599,0.0612,0.0624,0.0639,0.0645,0.0662,0.0674,0.0693,0.0666,0.0665,0.0587,0.051,0.049,0.0429,0.0388,0.033,0.0329,0.033,0.033,0.0249,0.0329,0.0329,0.0329,0.0329,0,0.0571,0.0586,0.0613,0.062,0.0652,0.0652,0.0684,0.069,0.0716,0.0748,0.0728,0.0755,0.0667,0.0629,0.0536,0.0449,0.0452,0.0346,0.0323,0.0339,0.034,0.0256,0.0218,0.0328,0.0328,0.0328,0.0328,0,0.0566,0.058,0.0606,0.0642,0.065,0.0674,0.0713,0.074,0.0763,0.0807,0.0819,0.0825,0.0785,0.0697,0.0584,0.0495,0.0363,0.0358,0.0397,0.0379,0.0237,0.0201,0.0139,0.0124,0.029,0.029,0.029,0,0.0564,0.0575,0.0618,0.0638,0.0653,0.069,0.0712,0.0749,0.0786,0.0854,0.0884,0.0881,0.0894,0.0756,0.06,0.0457,0.0372,0.0355,0.0314,0.0242,0.0185,0.0169,0.016,0.0324,0.0325,0.0325,0.0325,0,0.0564,0.0577,0.0603,0.0644,0.0675,0.0718,0.0767,0.0808,0.0863,0.0923,0.1001,0.1027,0.0923,0.0809,0.0619,0.0508,0.0324,0.0352,0.026,0.0198,0.0194,0.0166,0.0336,0.0326,0.0326,0.0326,0.0326,0.0325,0.0563,0.0582,0.0615,0.0654,0.0693,0.0755,0.0806,0.0878,0.0961,0.1084,0.1092,0.1171,0.0992,0.0753,0.0588,0.031,0.0321,0.0213,0.0176,0.0166,0.0152,0.0338,0.0308,0.0308,0.0308,0.0308,0.0308,0,0.0565,0.0588,0.0626,0.0681,0.0729,0.0752,0.0845,0.0923,0.1041,0.1164,0.1254,0.124,0.0992,0.0741,0.0356,0.016,0.0111,0.0063,0.0034,0.0032,0.0175,0.0175,0.0138,0.0138,0.0138,0.0138,0.0138,0.0139,0.0561,0.0597,0.0623,0.07,0.0743,0.0833,0.0896,0.1023,0.1139,0.1325,0.1416,0.1476,0.1321,0.0573,0.01,-0.0007,-0.0114,-0.0129,-0.0181,-0.0108,-0.0098,-0.0088,-0.0098,-0.0192,-0.0193,-0.0291,-0.0292,-0.0293]}],[{"header":{"parameterUnit":"m.s-1","parameterCategory":2,"la1":30.2991,"la2":30.254,"lo1":-89.0895,"lo2":-89.0444,"dy":0.0017,"dx":0.0017,"nx":28,"ny":28,"refTime":"2025-06-17T09:00:00:Z","depth":"2","parameterNumber":2,"parameterNumberName":"U-component_of_CURRENTS"},"data":[0,0,0,0,0,0,0,0,0,0,0,0,0,0,0,0,0,0,0,0,0,0,0,0,0,0,0,0,0,0,0,0,0,0,0,0,0,0,0,0,0,0,0,0,0,0,0,0,0,0,0,0,0,0,0,0,0,0,0.1566,0.1565,0,0.1583,0.1584,0.1585,0.1583,0.1582,0.158,0.1579,0.1627,0.1629,0.1632,0,0,0,0,0,0,0,0,0,0,0,0,0,0.1555,0.1557,0.1566,0.1565,0.1564,0.1582,0.1584,0.1586,0.1584,0.1582,0.158,0.1578,0.1626,0.1629,0.1632,0,0,0,0,0,0,0,0,0,0,0,0,0,0.1579,0.1557,0.1567,0.1554,0.1552,0.1582,0.1584,0.1586,0.1584,0.1582,0.1579,0.1577,0.1625,0.1629,0.1633,0.171,0,0,0.1646,0.1648,0,0,0,0,0,0,0,0,0.1578,0.1582,0.1557,0.1555,0.1552,0.1565,0.1597,0.1624,0.1585,0.1588,0.1578,0.1576,0.1601,0.1607,0.1637,0.1712,0.1714,0.1646,0.1649,0.1651,0.1652,0,0,0,0,0,0,0,0.1577,0.1581,0.1589,0.1556,0.1553,0.1553,0.1556,0.1603,0.1621,0.1588,0.1584,0.1562,0.1601,0.1633,0.1638,0.1715,0.1646,0.165,0.1653,0.1654,0.1791,0.1792,0,0,0,0,0,0,0.1546,0.158,0.1588,0.1587,0.1542,0.1555,0.1558,0.1576,0.162,0.1619,0.1564,0.1561,0.1627,0.1633,0.1639,0.172,0.1651,0.1655,0.1657,0.179,0.1791,0.1792,0,0,0,0,0,0,0.1546,0.1548,0.1587,0.1569,0.1572,0.1556,0.1577,0.1577,0.1599,0.1598,0.1601,0.1581,0.1625,0.1633,0.1676,0.1721,0.1657,0.166,0.1789,0.179,0.1792,0.1888,0,0,0,0,0,0,0.1547,0.155,0.1564,0.1568,0.1571,0.1575,0.1578,0.1579,0.1582,0.158,0.1615,0.1617,0.1624,0.167,0.168,0.1726,0.1664,0.1787,0.1789,0.1791,0.1883,0.1893,0.19,0,0,0,0,0,0.1547,0.1587,0.1566,0.1566,0.159,0.1573,0.1577,0.1566,0.1585,0.1584,0.1623,0.1615,0.1689,0.1675,0.1687,0.1735,0.1786,0.1789,0.1791,0.188,0.1891,0.19,0,0,0,0,0,0,0.1594,0.1588,0.1567,0.1602,0.1563,0.1565,0.1589,0.1575,0.1614,0.1634,0.1645,0.1651,0.17,0.1702,0.1686,0.1774,0.1731,0.1736,0.1794,0.1805,0.1813,0.1759,0.1667,0,0,0,0,0,0.1605,0.1662,0.1595,0.1641,0.1616,0.1607,0.1607,0.1589,0.1608,0.1624,0.1645,0.1682,0.1726,0.1749,0.1774,0.1841,0.1831,0.1871,0.1879,0.1887,0.1847,0.1901,0.1912,0.18,0.18,0.18,0,0,0.1607,0.1652,0.1654,0.1657,0.1655,0.1608,0.1608,0.1612,0.1601,0.1628,0.167,0.1714,0.1746,0.181,0.1832,0.1816,0.1918,0.189,0.1897,0.1852,0.1905,0.1916,0.1925,0.1802,0.1802,0.1801,0,0,0.1658,0.1705,0.1717,0.1695,0.1676,0.166,0.1648,0.1629,0.1647,0.1687,0.1706,0.1747,0.1835,0.1841,0.1868,0.1933,0.1957,0.1976,0.1991,0.2047,0.2056,0.2064,0.2089,0.2099,0.1988,0.1988,0.1988,0,0.1638,0.1698,0.1711,0.1709,0.1708,0.1671,0.164,0.1645,0.1647,0.1696,0.17,0.1827,0.1834,0.1908,0.1925,0.1949,0.1996,0.1961,0.206,0.2067,0.2074,0.2097,0.2106,0.1993,0.1993,0.1992,0.1992,0,0.1666,0.1693,0.1722,0.1713,0.1696,0.1705,0.1652,0.1652,0.1698,0.1732,0.1827,0.1855,0.1927,0.1949,0.1964,0.2031,0.2055,0.2065,0.2037,0.2091,0.2112,0.212,0.2,0.1998,0.1997,0.1996,0,0,0.1664,0.1713,0.172,0.1711,0.1721,0.1691,0.1698,0.1704,0.1727,0.1783,0.1859,0.1928,0.1983,0.2005,0.2036,0.2063,0.2146,0.21,0.2101,0.2128,0.229,0.2107,0.2098,0.2226,0.2228,0.2229,0.2295,0,0.1671,0.1664,0.1726,0.1704,0.1663,0.1683,0.1708,0.172,0.1766,0.182,0.19,0.1989,0.2001,0.206,0.2097,0.2118,0.217,0.2126,0.2226,0.2226,0.2061,0.21,0.198,0.2011,0.2302,0.2303,0.2304,0,0.1662,0.1678,0.1666,0.1704,0.1698,0.1691,0.1724,0.1748,0.1826,0.1892,0.1987,0.2058,0.2111,0.2115,0.2194,0.2196,0.2248,0.2259,0.2264,0.2046,0.2055,0.1998,0.2014,0.2317,0.2316,0.2315,0.2314,0,0.1637,0.1637,0.1661,0.1665,0.1686,0.1714,0.1728,0.1783,0.1844,0.1931,0.1992,0.2099,0.2144,0.2222,0.2264,0.2266,0.2343,0.2346,0.2232,0.2221,0.2095,0.2067,0.242,0.242,0.2419,0.2419,0.2419,0,0.1655,0.1652,0.1635,0.1652,0.1677,0.1696,0.1764,0.1786,0.1871,0.1962,0.2046,0.2094,0.2183,0.225,0.2295,0.2268,0.239,0.2205,0.2217,0.2123,0.2099,0.2334,0.2323,0.2422,0.2421,0.2421,0.242,0,0.1632,0.1652,0.167,0.1689,0.1682,0.1703,0.1764,0.1793,0.1881,0.1967,0.2019,0.2113,0.2175,0.225,0.2334,0.2266,0.2282,0.2272,0.2126,0.2113,0.2113,0.2107,0.2096,0.209,0.2084,0.208,0.2076,0,0.1633,0.1626,0.167,0.1683,0.1709,0.1717,0.1737,0.1805,0.1833,0.1969,0.2004,0.2098,0.2114,0.2128,0.2081,0.2087,0.2232,0.1944,0.1854,0.2063,0.2078,0.2079,0.208,0.1769,0.1763,0.1758,0.1754,0,0.1619,0.1662,0.1673,0.1677,0.17,0.172,0.1725,0.1743,0.1852,0.1912,0.1989,0.2009,0.198,0.1874,0.1823,0.1808,0.1903,0.1831,0.2155,0.1822,0.1747,0.1763,0.1777,0.1712,0.1716,0.1719,0.1721,0.1723,0.1612,0.1625,0.1649,0.1652,0.167,0.1692,0.1681,0.1689,0.1749,0.1808,0.1891,0.1834,0.1742,0.1529,0.1516,0.1496,0.1576,0.1524,0.1545,0.1569,0.1471,0.1386,0.1266,0.1268,0.1269,0.127,0.1271,0,0.1572,0.1586,0.1588,0.1616,0.1595,0.1638,0.1647,0.1617,0.1623,0.1672,0.1711,0.145,0.1331,0.1316,0.1193,0.1105,0.115,0.1094,0.1204,0.1243,0.1279,0.1174,0.0887,0.0886,0.0885,0.0884,0,0,0.1555,0.1553,0.1553,0.1516,0.1521,0.1499,0.1498,0.1468,0.1448,0.1377,0.1314,0.1321,0.1233,0.1044,0.1008,0.0973,0.1113,0.0924,0.123,0.1401,0.1437,0.1511,0.1386,0,0,0,0,0]},{"header":{"parameterUnit":"m.s-1","parameterCategory":2,"la1":30.2991,"la2":30.254,"lo1":-89.0895,"lo2":-89.0444,"dy":0.0017,"dx":0.0017,"nx":28,"ny":28,"refTime":"2025-06-17T09:00:00:Z","depth":"2","parameterNumber":3,"parameterNumberName":"V-component_of_CURRENTS"},"data":[0,0,0,0,0,0,0,0,0,0,0,0,0,0,0,0,0,0,0,0,0,0,0,0,0,0,0,0,0,0,0,0,0,0,0,0,0,0,0,0,0,0,0,0,0,0,0,0,0,0,0,0,0,0,0,0,0,0,0.0147,0.0148,0,0.0115,0.0114,0.0112,0.0044,0.0044,0.0044,0.0044,0.0037,0.0037,0.0037,0,0,0,0,0,0,0,0,0,0,0,0,0,0.0095,0.0096,0.0147,0.0148,0.0149,0.0115,0.0114,0.0112,0.0044,0.0044,0.0044,0.0044,0.0037,0.0037,0.0037,0,0,0,0,0,0,0,0,0,0,0,0,0,0.0083,0.0096,0.0147,0.0121,0.0119,0.0116,0.0114,0.0111,0.0044,0.0044,0.0044,0.0044,0.0037,0.0037,0.0037,0.004,0,0,0.0036,0.0036,0,0,0,0,0,0,0,0,0.0084,0.0083,0.0124,0.0123,0.0121,0.0096,0.0094,0.0093,0.0044,0.0058,0.0044,0.0044,0.0068,0.0065,0.004,0.0039,0.0039,0.0036,0.0036,0.0036,0.0036,0,0,0,0,0,0,0,0.0085,0.0084,0.012,0.0125,0.0124,0.0094,0.0091,0.0092,0.0054,0.0057,0.0055,0.0074,0.0065,0.004,0.0039,0.0039,0.0036,0.0036,0.0036,0.0036,0.0017,0.0017,0,0,0,0,0,0,0.012,0.0086,0.0122,0.0121,0.0117,0.0096,0.0092,0.0093,0.0054,0.0051,0.0074,0.0071,0.004,0.004,0.0039,0.0057,0.0036,0.0036,0.0036,0.0018,0.0017,0.0017,0,0,0,0,0,0,0.0118,0.0123,0.0123,0.0114,0.0114,0.0099,0.0099,0.0093,0.0078,0.0069,0.0064,0.007,0.004,0.0039,0.0045,0.0056,0.0036,0.0036,0.0018,0.0018,0.0017,0.0082,0,0,0,0,0,0,0.0117,0.0121,0.0126,0.0116,0.0117,0.0136,0.0101,0.0093,0.0096,0.0091,0.0064,0.0062,0.004,0.0046,0.0045,0.0055,0.0036,0.0019,0.0018,0.0017,0.0081,0.0084,0.0087,0,0,0,0,0,0.0114,0.0136,0.0126,0.0131,0.0125,0.0139,0.0134,0.0113,0.0096,0.0095,0.0073,0.0063,0.0039,0.0046,0.0045,0.0056,0.0019,0.0018,0.0017,0.0079,0.0083,0.0087,0,0,0,0,0,0,0.0127,0.0132,0.0121,0.0144,0.0149,0.0133,0.014,0.0125,0.0101,0.0097,0.0071,0.0068,0.0072,0.0053,0.0061,0.0042,0.0023,0.0022,0.007,0.0073,0.0076,0.0077,0.0036,0,0,0,0,0,0.0134,0.0151,0.0146,0.0176,0.0172,0.0154,0.0156,0.0144,0.0133,0.0121,0.01,0.0076,0.0064,0.0063,0.0045,0.005,0.0028,0.0048,0.0052,0.0055,0.0052,0.0035,0.0038,0.0014,0.0014,0.0014,0,0,0.0139,0.0164,0.0163,0.0181,0.0174,0.017,0.015,0.0166,0.0159,0.0129,0.0108,0.0094,0.0067,0.0062,0.0061,0.0052,0.0049,0.0053,0.0057,0.0052,0.0035,0.0037,0.004,0.0013,0.0013,0.0013,0,0,0.018,0.0186,0.0197,0.02,0.0219,0.0207,0.0218,0.0197,0.0177,0.0176,0.014,0.0128,0.0117,0.0084,0.0072,0.0081,0.0067,0.0081,0.0103,0.0087,0.009,0.0092,0.0069,0.0069,0.0082,0.0082,0.0082,0,0.0181,0.021,0.0207,0.0223,0.0236,0.0225,0.023,0.0209,0.0194,0.0188,0.0182,0.0146,0.012,0.0106,0.0099,0.0089,0.0083,0.0099,0.0094,0.0096,0.0096,0.0073,0.0071,0.0085,0.0085,0.0084,0.0084,0,0.0221,0.0235,0.0254,0.026,0.0266,0.0288,0.0263,0.0247,0.0239,0.0229,0.0222,0.0186,0.017,0.0152,0.0132,0.0121,0.0116,0.0106,0.0093,0.0103,0.0077,0.0074,0.0089,0.0088,0.0087,0.0087,0,0,0.024,0.0265,0.0275,0.0278,0.0291,0.0301,0.0285,0.0278,0.0274,0.026,0.0264,0.0226,0.0226,0.0208,0.0179,0.0151,0.0143,0.0138,0.0136,0.013,0.0117,0.0063,0.0054,0.015,0.015,0.015,0.0098,0,0.0269,0.0301,0.0316,0.0339,0.0334,0.0325,0.0328,0.0319,0.0302,0.0298,0.0273,0.0281,0.0245,0.0253,0.0221,0.0162,0.0139,0.0157,0.0095,0.0092,0.0055,0.005,0.0084,0.0037,0.0095,0.0095,0.0095,0,0.0292,0.0319,0.0343,0.0367,0.0369,0.0385,0.0381,0.0387,0.0372,0.0369,0.0364,0.0355,0.0322,0.0297,0.0213,0.0237,0.0186,0.0133,0.013,0.0053,0.0032,0.0033,0.0029,0.009,0.009,0.009,0.0091,0,0.0305,0.0334,0.0366,0.0373,0.0397,0.0406,0.0422,0.0409,0.0429,0.0422,0.0445,0.0408,0.0406,0.0338,0.0243,0.0239,0.0147,0.0128,0.0027,0.0023,0.0021,0.0016,0.0074,0.0074,0.0074,0.0075,0.0075,0,0.0333,0.0355,0.0372,0.0394,0.0432,0.044,0.048,0.0472,0.0498,0.0545,0.0508,0.052,0.042,0.0362,0.0268,0.014,0.0175,0.0024,0.0004,0.0042,0.004,0.006,0.0059,0.0073,0.0073,0.0073,0.0074,0,0.0343,0.0363,0.04,0.0435,0.0439,0.0474,0.053,0.0554,0.058,0.0627,0.0649,0.0611,0.0525,0.0409,0.0277,0.0171,0.0053,0.0006,0.005,0.0034,-0.007,-0.0067,-0.0128,-0.013,-0.0132,-0.0134,-0.0135,0,0.0354,0.0368,0.0423,0.0454,0.0478,0.0519,0.055,0.0588,0.0621,0.0681,0.0712,0.0658,0.0614,0.0392,0.0218,0.0042,0.0022,-0.0074,-0.01,-0.0079,-0.0091,-0.0085,-0.008,-0.007,-0.0071,-0.0072,-0.0072,0,0.037,0.04,0.0435,0.0484,0.0528,0.0582,0.0625,0.0666,0.0734,0.0784,0.0831,0.0809,0.0612,0.0421,0.0163,0.0048,-0.0051,-0.0098,-0.0067,-0.0035,-0.0032,-0.0042,-0.0037,-0.0078,-0.0077,-0.0077,-0.0077,-0.0076,0.0382,0.0417,0.0466,0.0516,0.0568,0.0641,0.0692,0.0751,0.0837,0.0938,0.0909,0.0868,0.0616,0.0274,0.0099,-0.0081,-0.0092,-0.0187,-0.0182,-0.0176,-0.0171,-0.0173,-0.0244,-0.0244,-0.0245,-0.0245,-0.0245,0,0.0394,0.0438,0.0484,0.0563,0.062,0.0651,0.0743,0.081,0.0913,0.0974,0.1027,0.0759,0.0542,0.0293,0.0036,-0.0157,-0.0127,-0.0229,-0.0149,-0.0143,-0.0138,-0.0128,-0.0191,-0.0191,-0.0192,-0.0192,0,0,0.04,0.0459,0.0488,0.0584,0.0642,0.0743,0.0806,0.091,0.0966,0.101,0.0975,0.0904,0.0551,0.0341,0.011,-0.0018,-0.0028,-0.0045,-0.0071,0.006,0.0068,-0.0104,-0.0082,0,0,0,0,0]}],[{"header":{"parameterUnit":"m.s-1","parameterCategory":2,"la1":30.2991,"la2":30.254,"lo1":-89.0895,"lo2":-89.0444,"dy":0.0017,"dx":0.0017,"nx":28,"ny":28,"refTime":"2025-06-17T09:00:00:Z","depth":"4","parameterNumber":2,"parameterNumberName":"U-component_of_CURRENTS"},"data":[0,0,0,0,0,0,0,0,0,0,0,0,0,0,0,0,0,0,0,0,0,0,0,0,0,0,0,0,0,0,0,0,0,0,0,0,0,0,0,0,0,0,0,0,0,0,0,0,0,0,0,0,0,0,0,0,0,0,-0.0434,-0.0435,0,-0.0481,-0.0481,-0.0482,-0.0521,-0.0522,-0.0523,-0.0523,-0.0556,-0.0557,-0.0557,0,0,0,0,0,0,0,0,0,0,0,0,0,-0.0316,-0.0318,-0.0434,-0.0435,-0.0436,-0.0481,-0.0481,-0.0482,-0.0521,-0.0522,-0.0523,-0.0524,-0.0556,-0.0557,-0.0557,0,0,0,0,0,0,0,0,0,0,0,0,0,-0.0362,-0.0319,-0.0434,-0.0464,-0.0467,-0.0481,-0.0481,-0.0482,-0.0521,-0.0522,-0.0523,-0.0524,-0.0556,-0.0557,-0.0557,-0.0536,0,0,-0.0558,-0.0558,0,0,0,0,0,0,0,0,-0.036,-0.0366,-0.0458,-0.0462,-0.0465,-0.05,-0.0452,-0.05,-0.0521,-0.0497,-0.0523,-0.0525,-0.0537,-0.0539,-0.0541,-0.0537,-0.0539,-0.0558,-0.0558,-0.0558,-0.0558,0,0,0,0,0,0,0,-0.0357,-0.0364,-0.0449,-0.0459,-0.0464,-0.0453,-0.0461,-0.0461,-0.0507,-0.0499,-0.0503,-0.0513,-0.0539,-0.0541,-0.0542,-0.0539,-0.0558,-0.0558,-0.0558,-0.0558,-0.0621,-0.0623,0,0,0,0,0,0,-0.036,-0.0362,-0.0448,-0.0451,-0.0418,-0.0455,-0.0464,-0.0485,-0.0508,-0.0513,-0.0512,-0.0515,-0.054,-0.0542,-0.0543,-0.0579,-0.0558,-0.0558,-0.0558,-0.062,-0.0622,-0.0623,0,0,0,0,0,0,-0.0358,-0.0368,-0.0446,-0.0409,-0.0419,-0.0457,-0.0479,-0.0485,-0.0513,-0.0519,-0.0524,-0.0538,-0.0541,-0.0543,-0.0579,-0.0579,-0.0558,-0.0558,-0.0618,-0.062,-0.0623,-0.0613,0,0,0,0,0,0,-0.0354,-0.0367,-0.0393,-0.041,-0.0421,-0.0462,-0.0479,-0.0485,-0.0518,-0.0522,-0.0541,-0.0544,-0.0542,-0.0579,-0.058,-0.0579,-0.0559,-0.0616,-0.0619,-0.0622,-0.0612,-0.0615,-0.0618,0,0,0,0,0,-0.035,-0.0373,-0.0395,-0.0406,-0.0454,-0.0463,-0.0467,-0.0494,-0.0518,-0.0524,-0.0558,-0.0545,-0.0598,-0.0581,-0.0581,-0.058,-0.0615,-0.0618,-0.0622,-0.061,-0.0614,-0.0618,0,0,0,0,0,0,-0.034,-0.0381,-0.0404,-0.0442,-0.0458,-0.0471,-0.0493,-0.0506,-0.0537,-0.0558,-0.0562,-0.0567,-0.0597,-0.0601,-0.0582,-0.0612,-0.0604,-0.0608,-0.0596,-0.06,-0.0603,-0.0571,-0.0559,0,0,0,0,0,-0.0351,-0.0381,-0.0407,-0.0441,-0.0455,-0.0479,-0.0494,-0.051,-0.0534,-0.055,-0.0562,-0.0588,-0.0606,-0.0615,-0.0629,-0.0641,-0.0621,-0.0646,-0.0649,-0.0651,-0.0629,-0.0629,-0.0629,-0.0635,-0.0635,-0.0635,0,0,-0.0354,-0.0386,-0.0402,-0.0441,-0.0465,-0.0467,-0.0491,-0.0519,-0.0522,-0.0547,-0.057,-0.0598,-0.0616,-0.0634,-0.0647,-0.0639,-0.0638,-0.0655,-0.0657,-0.0633,-0.0632,-0.0631,-0.063,-0.0637,-0.0637,-0.0636,0,0,-0.0354,-0.041,-0.0423,-0.0439,-0.0478,-0.0484,-0.0496,-0.052,-0.0539,-0.0562,-0.0588,-0.0623,-0.0642,-0.0653,-0.0661,-0.0691,-0.0658,-0.0702,-0.0681,-0.0682,-0.068,-0.0679,-0.0637,-0.0632,-0.0699,-0.0699,-0.0699,0,-0.0361,-0.0384,-0.0425,-0.0437,-0.0451,-0.0491,-0.049,-0.0506,-0.0536,-0.055,-0.0573,-0.0623,-0.0644,-0.0658,-0.0673,-0.0692,-0.0674,-0.066,-0.0682,-0.068,-0.0678,-0.0636,-0.063,-0.0699,-0.0699,-0.0699,-0.0699,0,-0.0353,-0.038,-0.0393,-0.0419,-0.0432,-0.0448,-0.047,-0.049,-0.0523,-0.0536,-0.0576,-0.0614,-0.0637,-0.0658,-0.0671,-0.0675,-0.0658,-0.0686,-0.0661,-0.0676,-0.0632,-0.0626,-0.0699,-0.0699,-0.0699,-0.0699,0,0,-0.0346,-0.0378,-0.0388,-0.0392,-0.043,-0.0434,-0.0449,-0.0462,-0.0474,-0.0516,-0.0519,-0.0575,-0.0603,-0.0615,-0.0644,-0.0648,-0.0625,-0.0656,-0.0656,-0.0592,-0.059,-0.0506,-0.0491,-0.0656,-0.0655,-0.0655,-0.0557,0,-0.0329,-0.0337,-0.0358,-0.0358,-0.036,-0.0399,-0.0402,-0.0426,-0.0455,-0.0467,-0.0517,-0.0539,-0.0583,-0.0601,-0.0612,-0.0631,-0.0612,-0.0646,-0.0603,-0.06,-0.0506,-0.0482,-0.0653,-0.0552,-0.0551,-0.0549,-0.0549,0,-0.0315,-0.0318,-0.0319,-0.0328,-0.0336,-0.0344,-0.0367,-0.0374,-0.0404,-0.0428,-0.0461,-0.0489,-0.0508,-0.0545,-0.0554,-0.0574,-0.0568,-0.0576,-0.0574,-0.0488,-0.0505,-0.0541,-0.0537,-0.0538,-0.0539,-0.054,-0.0541,0,-0.0288,-0.0294,-0.0294,-0.0302,-0.0315,-0.0331,-0.0344,-0.0375,-0.0372,-0.0404,-0.0395,-0.0438,-0.0439,-0.0467,-0.0475,-0.0517,-0.0454,-0.0522,-0.0428,-0.0421,-0.053,-0.0533,-0.0496,-0.0496,-0.0497,-0.0497,-0.0497,0,-0.0269,-0.0271,-0.0288,-0.0294,-0.0285,-0.0314,-0.0316,-0.0339,-0.0348,-0.0318,-0.0375,-0.0341,-0.0419,-0.0392,-0.0429,-0.0381,-0.0415,-0.0392,-0.0387,-0.0529,-0.0533,-0.0524,-0.0528,-0.0493,-0.0494,-0.0495,-0.0495,0,-0.0256,-0.0267,-0.0263,-0.0278,-0.0279,-0.0285,-0.0288,-0.0276,-0.03,-0.0254,-0.0252,-0.0253,-0.0228,-0.0261,-0.0274,-0.0289,-0.0281,-0.0247,-0.0336,-0.0343,-0.026,-0.0266,-0.0155,-0.0151,-0.0147,-0.0145,-0.0142,0,-0.0251,-0.0253,-0.0258,-0.0243,-0.0258,-0.0258,-0.0244,-0.026,-0.023,-0.0182,-0.0137,-0.0099,-0.0097,-0.0039,-0.0101,-0.0121,-0.0137,-0.0116,-0.0245,-0.0217,-0.0224,-0.0235,-0.0245,-0.0137,-0.0136,-0.0135,-0.0135,0,-0.024,-0.026,-0.0259,-0.0227,-0.0213,-0.0173,-0.0155,-0.0124,-0.0105,-0.0102,-0.0016,0.0,0.0059,0.0022,0.0041,0.0006,-0.0139,-0.0083,-0.0093,-0.0215,-0.0195,-0.0207,-0.0221,-0.0123,-0.0125,-0.0126,-0.0127,0,-0.0244,-0.0242,-0.0243,-0.0211,-0.0169,-0.0106,-0.01,-0.0042,-0.0012,0.0036,0.0081,0.0097,0.01,0.0098,0.0104,0.0093,0.0044,0.0004,-0.0012,-0.0025,-0.0036,0.0004,0.0173,0,0,0,0,0,-0.0245,-0.0244,-0.0213,-0.0169,-0.0118,-0.0092,-0.0034,-0.0022,0.0016,0.0092,0.008,0.0131,0.0148,0.0147,0.0149,0.0131,0.0029,0.0133,-0.0029,-0.006,-0.0073,-0.0103,0,0,0,0,0,0,-0.0241,-0.0239,-0.0219,-0.0135,-0.0092,-0.0025,0.001,0.0039,0.0075,0.0104,0.0107,0.013,0.013,0.0139,0.0145,0.0144,0.0043,0.0137,0.0138,-0.0053,-0.0065,-0.0075,-0.0111,0,0,0,0,0]},{"header":{"parameterUnit":"m.s-1","parameterCategory":2,"la1":30.2991,"la2":30.254,"lo1":-89.0895,"lo2":-89.0444,"dy":0.0017,"dx":0.0017,"nx":28,"ny":28,"refTime":"2025-06-17T09:00:00:Z","depth":"4","parameterNumber":3,"parameterNumberName":"V-component_of_CURRENTS"},"data":[0,0,0,0,0,0,0,0,0,0,0,0,0,0,0,0,0,0,0,0,0,0,0,0,0,0,0,0,0,0,0,0,0,0,0,0,0,0,0,0,0,0,0,0,0,0,0,0,0,0,0,0,0,0,0,0,0,0,0.0052,0.0052,0,-0.0009,-0.001,-0.0011,-0.0015,-0.0014,-0.0013,-0.0012,-0.003,-0.0032,-0.0033,0,0,0,0,0,0,0,0,0,0,0,0,0,0.0112,0.0111,0.0052,0.0052,0.0051,-0.0009,-0.001,-0.0012,-0.0015,-0.0014,-0.0013,-0.0011,-0.003,-0.0031,-0.0033,0,0,0,0,0,0,0,0,0,0,0,0,0,0.0068,0.0111,0.0052,0.0045,0.0044,-0.0009,-0.001,-0.0012,-0.0015,-0.0014,-0.0012,-0.0011,-0.0029,-0.0031,-0.0033,-0.0079,0,0,-0.004,-0.0041,0,0,0,0,0,0,0,0,0.0071,0.0066,0.0047,0.0046,0.0044,0.0001,0.0004,-0.0031,-0.0016,0.0003,-0.0012,-0.001,-0.0015,-0.0018,-0.0039,-0.0079,-0.008,-0.004,-0.0042,-0.0043,-0.0043,0,0,0,0,0,0,0,0.0074,0.0068,0.0024,0.0046,0.0045,0.0027,0.0022,-0.0003,-0.0016,0.0002,0.0002,0.0001,-0.0015,-0.0037,-0.0039,-0.0081,-0.004,-0.0042,-0.0044,-0.0045,-0.011,-0.011,0,0,0,0,0,0,0.009,0.0071,0.0026,0.0023,0.0066,0.0025,0.002,0.001,-0.0017,-0.0018,-0.0,0.0001,-0.0034,-0.0037,-0.004,-0.0054,-0.0043,-0.0045,-0.0046,-0.0109,-0.011,-0.011,0,0,0,0,0,0,0.0091,0.0086,0.0029,0.0049,0.0041,0.0023,0.0011,0.0008,-0.0004,-0.0018,-0.0019,-0.0006,-0.0033,-0.0037,-0.0065,-0.0056,-0.0046,-0.0048,-0.0109,-0.0109,-0.011,-0.0108,0,0,0,0,0,0,0.0093,0.0087,0.008,0.005,0.0041,-0.0005,0.001,0.0006,-0.0006,-0.0005,-0.0024,-0.0025,-0.0032,-0.0062,-0.0067,-0.0059,-0.0049,-0.0108,-0.0109,-0.011,-0.0108,-0.0109,-0.011,0,0,0,0,0,0.0095,0.0069,0.008,0.0075,0.0034,-0.0006,-0.0013,-0.0023,-0.0007,-0.0025,-0.0035,-0.0024,-0.0069,-0.0065,-0.0071,-0.0063,-0.0108,-0.0109,-0.011,-0.0108,-0.0109,-0.011,0,0,0,0,0,0,0.0079,0.0066,0.0077,0.0047,0.0028,-0.0005,-0.0025,-0.0023,-0.0048,-0.0041,-0.0046,-0.0049,-0.0071,-0.0072,-0.0067,-0.0083,-0.008,-0.0082,-0.0076,-0.0078,-0.0078,-0.008,-0.0051,0,0,0,0,0,0.0078,0.0063,0.0048,0.0024,0.0016,0.0,-0.0015,-0.0019,-0.0041,-0.005,-0.0058,-0.0066,-0.0084,-0.0084,-0.0108,-0.0123,-0.0124,-0.0117,-0.0117,-0.0118,-0.0123,-0.0123,-0.0124,-0.0113,-0.0113,-0.0113,0,0,0.0063,0.0057,0.0047,0.0022,0.0007,-0.002,-0.0007,-0.0033,-0.0053,-0.0049,-0.0078,-0.0082,-0.0094,-0.0114,-0.0119,-0.0107,-0.0122,-0.0119,-0.012,-0.0125,-0.0124,-0.0125,-0.0126,-0.0114,-0.0114,-0.0113,0,0,0.0031,0.0025,0.0007,-0.0009,-0.0023,-0.0038,-0.0041,-0.0065,-0.0072,-0.0098,-0.0097,-0.0101,-0.0123,-0.0131,-0.0137,-0.0159,-0.0139,-0.0147,-0.0139,-0.0138,-0.0139,-0.014,-0.0142,-0.0143,-0.0132,-0.0132,-0.0132,0,0.0019,-0.0003,-0.0008,-0.0028,-0.0043,-0.0043,-0.0069,-0.009,-0.0117,-0.0119,-0.0104,-0.013,-0.0136,-0.0156,-0.0152,-0.0161,-0.0152,-0.0132,-0.0138,-0.0139,-0.014,-0.0142,-0.0143,-0.0132,-0.0132,-0.0132,-0.0132,0,-0.0022,-0.0039,-0.0057,-0.0075,-0.0096,-0.0123,-0.0139,-0.0153,-0.0145,-0.0149,-0.0162,-0.0171,-0.0172,-0.0169,-0.0164,-0.0166,-0.0155,-0.0151,-0.0133,-0.0141,-0.0143,-0.0144,-0.0132,-0.0132,-0.0132,-0.0132,0,0,-0.0047,-0.0076,-0.0082,-0.0087,-0.0119,-0.0139,-0.0172,-0.0194,-0.0197,-0.0204,-0.0207,-0.0221,-0.0193,-0.0198,-0.0186,-0.0175,-0.0167,-0.0149,-0.0149,-0.0147,-0.0157,-0.0167,-0.0169,-0.0149,-0.0149,-0.0149,-0.0156,0,-0.0071,-0.0107,-0.0123,-0.0161,-0.0177,-0.0189,-0.0217,-0.0233,-0.0232,-0.0238,-0.0231,-0.0231,-0.0214,-0.0191,-0.0184,-0.0175,-0.0169,-0.0166,-0.0154,-0.0154,-0.0159,-0.0171,-0.015,-0.0157,-0.0157,-0.0157,-0.0157,0,-0.0096,-0.0114,-0.0153,-0.0176,-0.0185,-0.0211,-0.023,-0.0252,-0.0263,-0.0253,-0.0244,-0.0234,-0.0226,-0.0205,-0.0195,-0.0184,-0.017,-0.0164,-0.0164,-0.0176,-0.0167,-0.0149,-0.0159,-0.0159,-0.0159,-0.0159,-0.0159,0,-0.0086,-0.013,-0.0155,-0.0169,-0.0206,-0.0219,-0.0233,-0.0249,-0.0252,-0.0251,-0.0237,-0.0237,-0.0221,-0.021,-0.019,-0.0178,-0.0184,-0.0171,-0.018,-0.018,-0.0168,-0.0168,-0.0176,-0.0176,-0.0176,-0.0176,-0.0176,0,-0.0092,-0.0115,-0.0149,-0.0163,-0.0182,-0.0206,-0.0217,-0.0226,-0.0233,-0.0226,-0.0229,-0.0221,-0.0214,-0.0214,-0.0199,-0.0195,-0.0191,-0.0188,-0.0185,-0.0168,-0.0167,-0.0169,-0.0168,-0.0176,-0.0176,-0.0176,-0.0176,0,-0.0075,-0.0103,-0.0127,-0.0164,-0.0174,-0.018,-0.0198,-0.0198,-0.0205,-0.0197,-0.0188,-0.02,-0.0196,-0.0208,-0.0201,-0.0204,-0.0202,-0.0205,-0.0194,-0.0189,-0.0196,-0.0195,-0.0212,-0.0212,-0.0212,-0.0213,-0.0213,0,-0.0073,-0.0081,-0.0115,-0.012,-0.0138,-0.015,-0.0155,-0.0172,-0.0168,-0.0178,-0.0169,-0.0179,-0.0183,-0.0196,-0.0208,-0.0215,-0.0213,-0.0219,-0.0203,-0.0206,-0.0201,-0.02,-0.0198,-0.0214,-0.0214,-0.0214,-0.0214,0,-0.006,-0.0069,-0.0084,-0.0086,-0.0094,-0.0106,-0.0112,-0.0107,-0.012,-0.0136,-0.014,-0.0157,-0.0173,-0.019,-0.021,-0.0209,-0.0217,-0.0222,-0.0221,-0.0207,-0.0208,-0.0203,-0.0201,-0.0215,-0.0215,-0.0215,-0.0215,0,-0.0047,-0.0041,-0.0046,-0.0046,-0.0054,-0.0053,-0.0067,-0.0074,-0.0078,-0.0099,-0.0101,-0.013,-0.0156,-0.0187,-0.0196,-0.0211,-0.0205,-0.0202,-0.0201,-0.02,-0.0197,-0.0198,-0.0204,0,0,0,0,0,-0.0032,-0.0013,-0.0005,-0.0006,-0.0013,-0.0015,-0.0034,-0.0051,-0.007,-0.0066,-0.0085,-0.0098,-0.0134,-0.0159,-0.0171,-0.0194,-0.0203,-0.021,-0.0197,-0.0223,-0.0221,-0.0221,0,0,0,0,0,0,-0.0019,-0.0007,0.001,0.0031,0.0039,0.0034,0.0024,0.0004,-0.0003,-0.0031,-0.0052,-0.0089,-0.0126,-0.0113,-0.0163,-0.0172,-0.0165,-0.0237,-0.0237,-0.0224,-0.0222,-0.0221,-0.0221,0,0,0,0,0]}]]